Torna al catalogo

SL-12 DEB

LostHEO
NORAD 27965·DEBRIS·🇷🇺 Russia

Lanciato Sep 16, 1988 da Baikonur Cosmodrome

Loading…

Prossimi Passaggi (prossime 24 ore)

TLE

ObsoletoSource: Space-Track

Epoca: Feb 18, 2007, 05:55 UTC

1 27965U 88085K   07049.24668654  .00014334  00000-0  34159+0 0  9995
2 27965  64.7753  31.1642 4782629   3.7554 358.8395  5.18779967 70133

Traccia SL-12 DEB in tempo reale con AllMySat

Download on the App Store